Location: Banios
(43.0451°N, 0.2335°E)
Time: 13:07:16
(UTC+00:00)

A-11 Canister half - Pass Details

Date: 14 May 2021
Orbit: 1513 x 1686 km, 47.2° (Epoch: 14 June)

Event Time Altitude Azimuth Distance (km) Brightness Sun altitude
Rises 12:58:19 0° 207° (SSW) 4,701 12.0 62.3°
Reaches altitude 10° 13:01:40 10° 199° (SSW) 3,701 11.6 62.0°
Maximum altitude 13:09:57 38° 136° (SE) 2,172 10.4 61.1°
Drops below altitude 10° 13:18:09 10° 72° (ENE) 3,676 10.9 60.1°
Sets 13:21:26 0° 65° (ENE) 4,665 11.3 59.7°
